RH
43 42 36 35 37 39 46 45 44 50 63 65 72 85 95 95 88 91 70 61 62 58 53 50 45 40 37 40 38 34 34 32
45 42 37 36 35 40 50 48 48 58 64 74 73 83 96 97 91 93 74 68 58 54 51 46 48 46 43 42 38 40 39 35
51 47 44 39 37 41 48 55 52 61 69 75 80 87 94 96 91 96 81 73 61 55 51 47 49 51 49 42 41 44 41 39
59 52 51 49 41 40 47 55 60 63 70 67 77 87 95 95 94 96 89 76 64 56 51 58 58 56 51 49 49 45 43 42
62 62 59 57 51 45 45 53 59 63 67 71 71 80 96 98 98 97 92 80 64 60 65 68 64 58 51 53 57 51 46 42
59 59 59 63 60 49 50 55 59 61 64 74 73 78 97 99 97 94 94 82 70 68 72 72 69 62 55 54 58 56 51 42
54 54 56 56 61 61 54 56 60 63 61 69 80 72 94 99 96 96 96 86 78 76 76 77 72 66 59 59 55 56 54 44
44 46 47 50 52 55 55 55 63 66 64 65 79 77 87 99 98 99 97 87 88 78 74 77 75 71 64 65 57 54 53 46
33 37 39 39 45 53 54 56 62 66 71 65 75 81 83 99 97 98 93 88 92 88 84 82 80 74 67 68 61 51 51 45
30 32 29 34 39 50 52 54 61 65 66 77 73 81 82 96 97 96 93 93 93 91 92 92 86 83 74 72 66 54 50 44
32 31 29 30 35 38 50 51 56 62 62 69 77 79 84 91 93 99 95 95 96 94 96 95 92 88 80 75 71 57 49 45
34 33 32 30 34 39 46 52 54 55 55 64 77 81 82 84 94 99 98 95 95 98 98 95 97 93 86 79 77 61 51 45
27 34 34 33 33 39 45 50 52 55 56 59 70 81 85 84 92 99 97 98 96 98 99 98 99 95 91 86 81 66 57 44
24 30 35 37 38 39 43 48 51 53 63 59 63 73 86 88 97 96 99 97 99 98 99 99 99 97 89 86 83 70 62 42
24 27 33 38 38 38 45 46 51 56 65 64 60 70 85 91 97 98 97 93 95 96 99 99 98 98 93 84 90 78 63 45
31 27 31 37 40 40 40 46 48 59 66 63 66 69 76 92 97 95 96 93 91 94 99 99 98 96 96 95 94 82 68 51
35 32 29 35 42 43 43 51 55 52 61 64 69 70 78 83 94 95 94 93 85 91 99 99 99 97 96 94 97 80 71 53
37 35 33 33 39 45 47 46 56 54 62 69 72 74 76 82 87 94 97 87 79 82 93 96 99 98 96 85 80 70 70 62
41 37 34 33 37 45 50 50 51 62 62 68 79 78 78 81 91 92 99 94 85 83 81 87 89 95 97 69 69 81 79 76
45 42 38 35 36 42 49 54 53 60 64 66 73 85 78 78 88 95 96 96 93 89 84 89 83 78 78 66 66 84 88 79